STARLINK-3648, 51993

Orbit data source: Space-Track

STARLINK-3648, 51993 is a payload satellite owned by SpaceX/Seattle (US) in LEO that was launched on Wed, 09 Mar 2022 UTC via an FALCON 9 launch vehicle from the Air Force Eastern Test Range (AFETR). Payload-class satellites include a variety of spacecraft equipped with specific instruments for various scientific and technological missions. These include communications satellites like Starlink; space stations such as the ISS; scientific satellites like the Hubble; Earth observation satellites from companies like Planet Labs, Umbra, and HawkEye 360; GPS; miniature CubeSats for education and research; and military/defense satellites.

Loading next visibility...
Identifier
51993, 2022-025AP
Orbit
LEO
Country
Flag of USUS
Related business
Manufacturer
SpaceX/Seattle
Mission
Operational Commercial Communications
Bus & Motor
STARLINK, Unknown motor
Mass
297 kg wet, ~275 kg dry
Launch date (UTC)
2022-03-09 (4 years ago)
Launch vehicle
FALCON 9
Launch site
Air Force Eastern Test Range (AFETR)
Object type
Payload
Rocket body
Debris
Shape & HBR
Box + 1 Pan, 10.1 m
Radar Cross Section
13.562 m², Large (>1 m²)

Expand to show TLE details & history
Last TLE update: 1 day ago

TLE from 1 day ago
0 STARLINK-3648
1 51993U 22025AP  25346.52068046 -.00001352  00000-0 -66910-4 0  9998
2 51993  53.2146  70.4365 0001557  96.7393 263.3777 15.08826961207909
Epoch: 2025-12-12T12:29Z
TLE epoch observation values (Epoch: 2025-12-12T12:29:46.791Z)
Latitude
0.00002°
Longitude
161.53043°
Altitude
540.805 km
Speed
7.593 km/s
True Right ascension
04h 41m 44s
True Declination
0° 00' 00"
Sunlit
Object was in full shadow at epoch
Visualization orbit readout
Latitude
Unknown
Longitude
Unknown
Altitude
Unknown
Speed
Unknown
Apparent Right ascension
Unknown
Apparent Declination
Unknown
Sunlit
N/A
Visualization observer readout
Local Sidereal Time
11:20:37
Azimuth
Unknown
Elevation
Unknown
Doppler factor
Unknown
Orbital elements
Apogee altitude
541.106 km
Perigee altitude
538.951 km
Semi-major axis
6,918.166 km
Eccentricity
0.00016
Inclination
53.2146°
RAAN
70.4365°
Arg. of periapsis
96.7393°
True anomaly
263.35998°
Mean anomaly
263.3777°
Eccentric anomaly
263.36884°
Mean motion
3.77187 °/min
Orbital period
95.44 mins
BSTAR
-0.00006691
Loading maneuver chart data...
Computing Atmospheric mass density...
Loading historical data...
Loading historical data...
Loading historical data...
Loading historical data...
Loading historical data...
Loading historical data...
Loading historical data...

Documentation

Showing up to 5 results
|